Location: Bouchavesnes-Bergen
(49.9859°N, 2.9203°E)
Time: 10:36:53
(UTC+00:00)

COSMOS 2428 - Pass Details

Date: 09 March 2021
Orbit: 845 x 858 km, 70.9° (Epoch: 13 April)

Event Time Altitude Azimuth Distance (km) Brightness Sun altitude
Rises 03:06:51 0° 332° (NNW) 3,430 5.9 -29.8°
Reaches altitude 10° 03:09:28 10° 340° (NNW) 2,493 5.3 -29.4°
Maximum altitude 03:14:53 41° 51° (NE) 1,216 3.9 -28.7°
Drops below altitude 10° 03:20:16 10° 121° (ESE) 2,487 5.5 -27.9°
Sets 03:22:52 0° 128° (SE) 3,421 6.1 -27.6°
